Jefferson, NC

6:51 AM EDT on July 16, 2019 (GMT -0400)
Ashe County

Weather History for KGEV - May, 2019

Change the Weather History Date:

Tuesday, May 21, 2019

  Actual Average Record
Temperature  
Mean Temperature 67 °F -  
Max Temperature 79 °F 71 °F 85 °F (1970)
Min Temperature 55 °F 49 °F 30 °F (1993)
Cooling Degree Days 2    
Growing Degree Days 17 (Base 50)    
Moisture  
Dew Point 49 °F    
Average Humidity 56    
Maximum Humidity 83    
Minimum Humidity 22    
Precipitation  
Precipitation 0.00 in - - ()
Sea Level Pressure  
Sea Level Pressure 30.09 in    
Wind  
Wind Speed 4 mph (SW)    
Max Wind Speed 15 mph    
Max Gust Speed 21 mph    
Visibility 10 miles    
Events      
Averages and records for this station are not official NWS values.
T = Trace of Precipitation, MM = Missing Value Source: NWS Daily Summary

Daily Weather History Graph

Daily Weather History Graph

Search for Another Location

Airport or City:

Astronomy

May. 21, 2019 Rise Set
Actual Time 6:14 AM EDT 8:30 PM EDT
Civil Twilight 5:45 AM EDT 8:59 PM EDT
Nautical Twilight 5:09 AM EDT 9:35 PM EDT
Astronomical Twilight 4:30 AM EDT 10:14 PM EDT
Moon 11:23 PM EDT (5/21) 8:30 AM EDT (5/21)
Length of Visible Light 15h 13m
Length of Day
14h 15m
Waning Gibbous, 91% of the Moon is Illuminated
May 21
Waning Gibbous
May 26
Last Quarter
Jun 3
New
Jun 10
First Quarter
Jun 17
Full

Hourly Weather History & Observations

Time (EDT) Temp. Dew Point Humidity Pressure Visibility Wind Dir Wind Speed Gust Speed Precip Events Conditions
12:05 AM 62.8 °F 47.5 °F 57% 30.07 in 10.0 mi Calm Calm - N/A   Clear
12:25 AM 63.1 °F 47.7 °F 57% 30.07 in 10.0 mi North 3.5 mph - N/A   Clear
1:05 AM 62.4 °F 47.8 °F 59% 30.07 in 10.0 mi NW 6.9 mph - N/A   Clear
1:25 AM 61.9 °F 48.2 °F 61% 30.07 in 10.0 mi WNW 3.5 mph - N/A   Clear
1:45 AM 61.9 °F 48.6 °F 62% 30.06 in 10.0 mi NW 8.1 mph - N/A   Clear
2:05 AM 61.2 °F 48.6 °F 63% 30.06 in 10.0 mi NW 8.1 mph - N/A   Clear
2:25 AM 61.7 °F 48.7 °F 62% 30.06 in 10.0 mi NW 6.9 mph - N/A   Clear
2:45 AM 61.7 °F 49.1 °F 63% 30.06 in 10.0 mi West 4.6 mph - N/A   Clear
3:05 AM 61.0 °F 48.9 °F 64% 30.06 in 10.0 mi Calm Calm - N/A   Clear
3:25 AM 57.6 °F 48.7 °F 72% 30.04 in 10.0 mi SE 3.5 mph - N/A   Clear
3:45 AM 56.3 °F 48.6 °F 75% 30.04 in 10.0 mi ESE 3.5 mph - N/A   Clear
4:05 AM 55.6 °F 48.7 °F 78% 30.04 in 10.0 mi East 3.5 mph - N/A   Clear
4:25 AM 56.3 °F 48.6 °F 75% 30.04 in 10.0 mi Calm Calm - N/A   Clear
4:45 AM 56.5 °F 48.7 °F 75% 30.05 in 10.0 mi Calm Calm - N/A   Clear
5:05 AM 58.5 °F 49.3 °F 72% 30.06 in 10.0 mi WNW 11.5 mph - N/A   Clear
5:25 AM 58.3 °F 49.3 °F 72% 30.06 in 10.0 mi WNW 8.1 mph - N/A   Clear
5:45 AM 59.5 °F 49.1 °F 68% 30.06 in 10.0 mi WNW 10.4 mph - N/A   Clear
6:05 AM 60.4 °F 48.4 °F 64% 30.06 in 10.0 mi WNW 15.0 mph 19.6 mph N/A   Clear
6:25 AM 61.3 °F 46.4 °F 58% 30.06 in 10.0 mi West 12.7 mph 20.7 mph N/A   Clear
6:45 AM 56.8 °F 47.3 °F 70% 30.06 in 10.0 mi Calm Calm - N/A   Clear
7:05 AM 56.5 °F 48.2 °F 74% 30.08 in 10.0 mi Calm Calm - N/A   Clear
7:25 AM 56.3 °F 48.0 °F 74% 30.08 in 10.0 mi NNE 4.6 mph - N/A   Clear
7:45 AM 55.4 °F 50.4 °F 83% 30.09 in 10.0 mi Calm Calm - N/A   Clear
8:05 AM 60.1 °F 47.3 °F 63% 30.09 in 10.0 mi Calm Calm - N/A   Clear
8:25 AM 60.8 °F 50.4 °F 68% 30.09 in 10.0 mi Calm Calm - N/A   Clear
8:45 AM 61.9 °F 48.4 °F 61% 30.09 in 10.0 mi Calm Calm - N/A   Clear
9:05 AM 63.5 °F 50.5 °F 63% 30.10 in 10.0 mi Calm Calm - N/A   Clear
9:25 AM 66.0 °F 47.7 °F 52% 30.10 in 10.0 mi Calm Calm - N/A   Clear
9:45 AM 66.6 °F 46.8 °F 49% 30.10 in 10.0 mi Calm Calm - N/A   Clear
10:05 AM 67.5 °F 47.5 °F 49% 30.10 in 10.0 mi Calm Calm - N/A   Clear
10:25 AM 69.4 °F 43.0 °F 38% 30.10 in 10.0 mi SSW 3.5 mph - N/A   Clear
10:45 AM 71.8 °F 35.6 °F 27% 30.10 in 10.0 mi WSW 4.6 mph - N/A   Clear
11:05 AM 72.0 °F 34.2 °F 25% 30.10 in 10.0 mi West 4.6 mph - N/A   Clear
11:25 AM 72.5 °F 42.3 °F 34% 30.11 in 10.0 mi Calm Calm - N/A   Clear
11:45 AM 73.9 °F 33.3 °F 23% 30.11 in 10.0 mi West 4.6 mph - N/A   Clear
12:05 PM 74.7 °F 35.2 °F 24% 30.10 in 10.0 mi West 9.2 mph - N/A   Clear
12:25 PM 75.7 °F 36.5 °F 24% 30.10 in 10.0 mi West 6.9 mph - N/A   Clear
12:45 PM - - N/A% 30.10 in 10.0 mi West 6.9 mph - N/A   Clear
1:05 PM - - N/A% 30.09 in 10.0 mi West 8.1 mph - N/A   Clear
1:45 PM - - N/A% 30.09 in 10.0 mi SW 6.9 mph - N/A   Clear
2:05 PM 77.4 °F 35.4 °F 22% 30.08 in 10.0 mi WNW 4.6 mph - N/A   Clear
2:25 PM 79.0 °F 37.8 °F 23% 30.08 in 10.0 mi SW 5.8 mph - N/A   Clear
2:45 PM 79.2 °F 38.5 °F 23% 30.08 in 10.0 mi SSW 3.5 mph - N/A   Clear
3:05 PM 76.3 °F 52.9 °F 44% 30.07 in 10.0 mi ESE 5.8 mph - N/A   Clear
3:25 PM 74.7 °F 52.0 °F 45% 30.07 in 10.0 mi SE 5.8 mph - N/A   Clear
3:45 PM 75.7 °F 53.4 °F 46% 30.07 in 10.0 mi SE 4.6 mph - N/A   Clear
4:25 PM 75.2 °F 52.7 °F 45% 30.07 in 10.0 mi Calm Calm - N/A   Clear
4:45 PM 74.5 °F 52.9 °F 47% 30.07 in 10.0 mi SE 4.6 mph - N/A   Clear
5:05 PM 75.9 °F 53.4 °F 45% 30.07 in 10.0 mi SE 5.8 mph - N/A   Clear
5:25 PM 76.1 °F 53.6 °F 45% 30.07 in 10.0 mi SE 3.5 mph - N/A   Clear
5:45 PM 75.2 °F 54.0 °F 47% 30.07 in 10.0 mi ESE 4.6 mph - N/A   Clear
6:25 PM 73.9 °F 53.8 °F 49% 30.08 in 10.0 mi SE 4.6 mph - N/A   Clear
6:45 PM 73.6 °F 54.3 °F 51% 30.08 in 10.0 mi SE 3.5 mph - N/A   Clear
7:25 PM 72.1 °F 54.5 °F 54% 30.09 in 10.0 mi ESE 3.5 mph - N/A   Clear
7:45 PM 71.1 °F 55.0 °F 57% 30.09 in 10.0 mi ESE 4.6 mph - N/A   Clear
8:05 PM 70.2 °F 55.4 °F 59% 30.09 in 10.0 mi Calm Calm - N/A   Clear
8:25 PM 69.3 °F 55.4 °F 61% 30.10 in 10.0 mi SE 3.5 mph - N/A   Clear
8:45 PM 69.1 °F 54.9 °F 60% 30.11 in 10.0 mi Calm Calm - N/A   Clear
9:05 PM 68.5 °F 55.0 °F 62% 30.12 in 10.0 mi SSE 3.5 mph - N/A   Clear
9:25 PM 67.8 °F 55.4 °F 64% 30.12 in 10.0 mi Calm Calm - N/A   Clear
9:45 PM 66.9 °F 55.4 °F 66% 30.13 in 10.0 mi Calm Calm - N/A   Clear
10:05 PM 66.2 °F 55.4 °F 68% 30.14 in 10.0 mi Calm Calm - N/A   Clear
10:25 PM 66.2 °F 55.4 °F 68% 30.15 in 10.0 mi Calm Calm - N/A   Clear
10:45 PM 65.1 °F 55.4 °F 71% 30.15 in 10.0 mi Calm Calm - N/A   Clear
11:05 PM 64.8 °F 55.4 °F 72% 30.16 in 10.0 mi Calm Calm - N/A   Clear
11:25 PM 65.3 °F 55.4 °F 70% 30.17 in 10.0 mi Calm Calm - N/A   Clear
11:45 PM 64.2 °F 55.4 °F 73% 30.17 in 10.0 mi SE 3.5 mph - N/A   Clear